Location: Helsinki
(60.1699°N, 24.9384°E)
Time: 10:17:57
(UTC+02:00)

Vanguard 2 Rocket - Pass Details

Date: 28 September 2023
Orbit: 552 x 3312 km, 32.9° (Epoch: 05 December)

Event Time Altitude Azimuth Distance (km) Brightness Sun altitude
Rises 17:00:52 0° 261° (W) 7,267 12.9 13.7°
Reaches altitude 10° 17:08:04 10° 247° (WSW) 6,259 14.2 12.9°
Maximum altitude 17:19:12 19° 212° (SSW) 5,233 11.9 11.6°
Drops below altitude 10° 17:28:56 10° 176° (S) 5,353 11.1 10.5°
Sets 17:34:21 0° 160° (SSE) 5,905 11.1 9.9°
